Regional Weather Roundup
Issued by NWS

Home | Current Version | Previous Version | Text Only | Print | Product List | Glossary Off
Versions: 1 2 3 4 5 6 7 8 9 10 11 12 13 14 15 16 17 18 19 20 21 22 23 24 25 26 27 28 29 30 31 32 33 34 35 36 37 38 39 40 41 42 43 44 45 46 47 48 49 50

000
ASUS43 KDMX 012307
RWRIA

WEATHER ROUNDUP FOR IOWA
NATIONAL WEATHER SERVICE DES MOINES IA
600 PM CDT SAT AUG 01 2015

NOTE: "FAIR" INDICATES FEW OR NO CLOUDS BELOW 12,000 FEET WITH NO
SIGNIFICANT WEATHER AND/OR OBSTRUCTIONS TO VISIBILITY.

* - THESE STATIONS ARE NOT NWS STATIONS...THUS NOT UNDER NWS
QUALITY CONTROL.  THEY ALSO DO NOT REPORT WEATHER SUCH
AS PRECIPITATION OR FOG.

IAZ001>003-012>014-020>022-031>034-043>046-020000-
   NORTHWEST IOWA

CITY           SKY/WX    TMP DP  RH WIND       PRES   REMARKS
CARROLL *      SUNNY     82  73  74 SW10      29.94F HX  88
CHEROKEE *     SUNNY     82  68  61 SW6       29.91F HX  85
DENISON *      SUNNY     81  70  69 S6        29.91F HX  84
LE MARS *      SUNNY     82  66  57 S8        29.90F HX  85
ORANGE CITY *  SUNNY     81  63  54 SW6       29.90F HX  82
SHELDON *      SUNNY     82  64  54 SW9       29.89F HX  84
SIOUX CITY     SUNNY     82  68  62 SE12      29.89F HX  85
SPENCER        SUNNY     83  64  52 SW8       29.91F HX  84
STORM LAKE *   SUNNY     81  68  65 S9        29.94F HX  83
$$

IAZ055>058-069>071-079>083-090>094-020000-
   SOUTHWEST IOWA

CITY           SKY/WX    TMP DP  RH WIND       PRES   REMARKS
ATLANTIC *     SUNNY     82  73  74 SW8       29.94F HX  88
AUDUBON *      SUNNY     82  72  69 SW5       29.96F HX  87
CLARINDA *     SUNNY     86  75  70 SW5       29.95F HX  95
COUNCIL BLFS * SUNNY     81  70  69 SE7       29.94F HX  84
CRESTON *      SUNNY     82  72  69 W7        29.97F HX  87
HARLAN  *      SUNNY     82  77  83 S6        29.97F HX  91
LAMONI         MOSUNNY   87  72  60 SW5       29.94F HX  93
RED OAK *      PTSUNNY   84  73  70 SW6       29.95F HX  91
SHENANDOAH *   SUNNY     84  75  74 SW7       29.94F HX  92
$$

IAZ047>049-059>061-072>074-084-020000-
   CENTRAL IOWA

CITY           SKY/WX    TMP DP  RH WIND       PRES   REMARKS
AMES           PTSUNNY   83  72  69 SW7       29.92F HX  88
ANKENY *       MOSUNNY   86  70  58 SW8       29.92S HX  90
CHARITON *     SUNNY     86  73  66 SE5       29.94F HX  93
DES MOINES     PTSUNNY   87  69  54 W7        29.92S HX  91
GRINNELL*      PTSUNNY   84  70  61 SW3       29.94F HX  88
KNOXVILLE *    SUNNY     86  72  62 CALM      29.92F HX  92
MARSHALLTOWN   CLOUDY    83  71  67 SW5       29.92F HX  87
PELLA *        MOSUNNY   86  75  70 CALM      29.94F HX  95
PERRY *        PTSUNNY   84  75  74 W3        29.93F HX  92
$$

IAZ004>006-015-016-023>025-035-036-020000-
   NORTH CENTRAL IOWA

CITY           SKY/WX    TMP DP  RH WIND       PRES   REMARKS
ALGONA *       SUNNY     84  70  61 SW9       29.91F HX  88
CLARION *      SUNNY     82  68  61 SW7       29.92S HX  85
ESTHERVILLE    SUNNY     82  63  52 SW10      29.90F HX  83
FORT DODGE *   PTSUNNY   84  68  58 SW9       29.93S HX  87
MASON CITY     MOSUNNY   85  59  41 SW7       29.92F HX  84
FOREST CITY *  SUNNY     81  64  57 S7        29.90F HX  82
IOWA FALLS *     N/A     84  68  58 CALM      29.93F HX  87
$$

IAZ007>011-017>019-026>030-037>042-050>054-066-020000-
   NORTHEAST IOWA

CITY           SKY/WX    TMP DP  RH WIND       PRES   REMARKS
CEDAR RAPIDS   PTSUNNY   82  74  76 W3        29.93F HX  88
CHARLES CITY * SUNNY     82  70  65 SW7       29.92F HX  86
CLINTON *      PTSUNNY   82  68  61 W9        29.96S HX  85
DECORAH *      SUNNY     82  64  54 VRB5      29.91F HX  84
DUBUQUE        PTSUNNY   83  70  64 SW10      29.93F HX  87
MONTICELLO *   SUNNY     82  72  69 W6        29.92F HX  87
OELWEIN *      SUNNY     82  72  69 W5        29.93F HX  87
WATERLOO       CLOUDY    83  71  67 W3        29.90F HX  87
$$

IAZ064-065-067-068-078-020000-
   EAST CENTRAL IOWA

CITY           SKY/WX    TMP DP  RH WIND       PRES   REMARKS
DAVENPORT      PTSUNNY   82  66  58 W7        29.94F HX  84
IOWA CITY      PTSUNNY   84  70  62 SW6       29.94F HX  88
MT. PLEASANT * SUNNY     88  64  45 SW5       29.95S HX  89
MUSCATINE *    SUNNY     86  68  54 SW7       29.94S HX  89
QUAD CITIES    PTSUNNY   84  68  58 SW5       29.93F HX  87
$$

IAZ062-063-075>077-085>089-095>099-020000-
   SOUTHEAST IOWA

CITY           SKY/WX    TMP DP  RH WIND       PRES   REMARKS
BURLINGTON     SUNNY     85  70  60 W5        29.95F HX  89
FAIRFIELD *    SUNNY     86  72  62 CALM      29.94F HX  92
FORT MADISON * SUNNY     86  70  58 W3        29.96S HX  90
KEOKUK *       MOSUNNY   86  72  62 SW6       29.95S HX  92
OSKALOOSA *      N/A     84  72  65 CALM      29.94F HX  89
CENTERVILLE *  SUNNY     84  73  70 S3        29.97S HX  91
OTTUMWA        MOSUNNY   84  72  67 S5        29.92F HX  89
WASHINGTON *   SUNNY     84  70  61 SW6       29.95F HX  88
$$

ABBREVIATIONS USED IN REMARKS
   TC - TEMPERATURES IN CELSIUS
  WCI - WIND CHILL INDEX
   HX - HEAT INDEX
  VSB - VISIBILITY
$$



USA.gov is the U.S. government's official web portal to all federal, state and local government web resources and services.